x

8654467 - Hatteras, Nc (hcgn7) Weather Station

1:30pm - Fri 17th Nov 2017 All times are EST. -5 hours from GMT.

  • Wind
    15mph, 18mph gusts
  • Sea Temp 58°f
  • Air Temp 51°f
  • Sea Pressure 1020.7mb
  • 8654467 - Hatteras, Nc
  • 8654467 - Hatteras, Nc

More Historic Weather Station data

Upgrade to MSW Pro to gain access to the past 30 days of data for over 8000 Wavebouys and Weather Stations around the globe.

Join

Comparision Forecast

View Surf forecast
   
Fri 11/17 1:30pm 15 18 mph 1020.7mb 58f 51f
1:24pm 15 20 mph 1020.6mb 58f 51f
1:18pm 15 18 mph 1020.7mb 58f 51f
1:12pm 15 18 mph 1020.8mb 58f 51f
1:06pm 16 18 mph 1020.8mb 58f 51f
1:00pm 16 18 mph 1020.9mb 58f 50f
12:54pm 16 20 mph 1020.8mb 58f 51f
12:48pm 16 20 mph 1020.9mb 58f 51f
12:42pm 16 18 mph 1021mb 58f 51f
12:36pm 18 20 mph 1021.1mb 58f 50f
12:30pm 18 21 mph 1021.1mb 58f 50f
12:24pm 16 21 mph 1021.1mb 58f 51f
12:18pm 17 21 mph 1021.1mb 58f 51f
12:12pm 17 21 mph 1021.1mb 58f 51f
12:06pm 18 22 mph 1021.2mb 58f 50f
12:00pm 18 21 mph 1021.2mb 58f 50f
11:54am 17 21 mph 1021.2mb 58f 50f
11:48am 18 21 mph 1021.2mb 58f 50f
11:42am 17 22 mph 1021.2mb 58f 50f
11:36am 17 21 mph 1021.3mb 58f 50f
11:30am 17 22 mph 1021.5mb 58f 50f
11:24am 18 21 mph 1021.5mb 58f 50f
11:18am 18 22 mph 1021.6mb 58f 50f
11:12am 18 22 mph 1021.7mb 58f 50f
11:06am 17 22 mph 1021.8mb 58f 50f
11:00am 18 22 mph 1021.7mb 58f 50f
10:54am 17 21 mph 1021.7mb 58f 50f
10:48am 18 21 mph 1021.6mb 58f 50f
10:42am 18 22 mph 1021.6mb 58f 50f
10:36am 16 22 mph 1021.8mb 58f 50f
10:30am 20 22 mph 1021.8mb 58f 50f
10:24am 18 21 mph 1021.9mb 58f 50f
10:18am 20 25 mph 1022mb 58f 50f
10:12am 20 23 mph 1022.1mb 58f 50f
10:06am 18 23 mph 1021.8mb 59f 49f
10:00am 16 22 mph 1021.8mb 59f 49f
9:54am 17 25 mph 1022mb 59f 49f
9:48am 21 24 mph 1022.4mb 59f 49f
9:42am 20 25 mph 1022.5mb 59f 49f
9:36am 21 24 mph 1022.3mb 59f 49f
9:30am 20 23 mph 1022.1mb 59f 49f
9:24am 22 25 mph 1022mb 59f 49f
9:18am 20 22 mph 1021.9mb 59f 48f
9:12am 20 24 mph 1021.7mb 59f 48f
9:06am 21 25 mph 1022mb 59f 49f
9:00am 22 26 mph 1022.2mb 59f 49f
8:54am 22 25 mph 1022.2mb 59f 48f
8:48am 21 25 mph 1022.1mb 59f 48f
8:42am 22 28 mph 1022.1mb 59f 48f
8:36am 22 25 mph 1022.1mb 59f 49f
8:30am 21 26 mph 1022.1mb 59f 48f
8:24am 22 25 mph 1022mb 59f 49f
8:18am 21 24 mph 1021.9mb 59f 49f
8:12am 22 26 mph 1021.9mb 59f 49f
8:06am 22 25 mph 1021.9mb 59f 49f
8:00am 22 25 mph 1021.8mb 59f 49f
7:54am 22 25 mph 1021.7mb 59f 49f
7:48am 22 25 mph 1021.6mb 59f 49f
7:42am 21 24 mph 1021.6mb 59f 49f
7:36am 21 24 mph 1021.5mb 59f 48f
7:30am 21 25 mph 1021.4mb 59f 49f
7:24am 20 24 mph 1021.2mb 59f 49f
7:18am 20 24 mph 1021.2mb 59f 49f
7:12am 21 23 mph 1021.2mb 59f 49f
7:06am 21 23 mph 1021.1mb 59f 49f
7:00am 21 23 mph 1021mb 59f 49f
6:54am 21 23 mph 1020.9mb 59f 49f
6:48am 21 23 mph 1021mb 59f 50f
6:42am 22 24 mph 1020.9mb 59f 49f
6:36am 21 23 mph 1020.8mb 59f 50f
6:30am 21 24 mph 1020.7mb 59f 50f
6:24am 21 24 mph 1020.6mb 59f 50f
6:18am 20 24 mph 1020.6mb 59f 50f
6:12am 21 25 mph 1020.5mb 59f 50f
6:06am 21 25 mph 1020.4mb 59f 50f
6:00am 20 25 mph 1020.3mb 59f 51f
5:54am 22 25 mph 1020.3mb 59f 50f
5:48am 23 26 mph 1020.2mb 59f 50f
5:42am 21 26 mph 1020.2mb 59f 51f
5:36am 23 26 mph 1020.1mb 59f 51f
5:30am 23 25 mph 1020mb 59f 51f
5:24am 22 26 mph 1019.9mb 60f 51f
5:18am 21 24 mph 1019.8mb 60f 51f
5:12am 21 24 mph 1019.7mb 60f 51f
5:06am 22 26 mph 1019.6mb 60f 51f
5:00am 22 26 mph 1019.5mb 60f 51f
4:54am 22 25 mph 1019.5mb 60f 52f
4:48am 22 26 mph 1019.4mb 60f 52f
4:42am 22 25 mph 1019.3mb 60f 52f
4:36am 23 25 mph 1019.3mb 60f 52f
4:30am 22 25 mph 1019.3mb 60f 52f
4:24am 22 25 mph 1019.2mb 60f 53f
4:18am 24 28 mph 1019mb 60f 53f
4:12am 24 29 mph 1019mb 60f 53f
4:06am 24 30 mph 1018.9mb 60f 53f
4:00am 26 29 mph 1018.8mb 60f 53f
3:54am 25 29 mph 1018.8mb 60f 53f
3:48am 24 28 mph 1018.7mb 60f 54f
3:42am 24 28 mph 1018.6mb 60f 54f
3:36am 25 29 mph 1018.5mb 60f 54f
3:30am 25 29 mph 1018.5mb 60f 54f
3:24am 25 28 mph 1018.4mb 60f 54f
3:18am 25 28 mph 1018.4mb 60f 54f
3:12am 25 30 mph 1018.3mb 60f 55f
3:06am 23 28 mph 1018.2mb 60f 55f
3:00am 24 29 mph 1018.2mb 60f 55f
2:54am 25 29 mph 1018.1mb 60f 55f
2:48am 24 29 mph 1018.2mb 60f 55f
2:42am 24 29 mph 1018.1mb 60f 55f
2:36am 23 28 mph 1018.1mb 60f 56f
2:30am 23 28 mph 1017.9mb 60f 56f
2:24am 24 29 mph 1017.8mb 60f 56f
2:18am 24 28 mph 1017.8mb 60f 56f
2:12am 25 28 mph 1017.7mb 60f 56f
2:06am 22 26 mph 1017.5mb 60f 56f
2:00am 20 22 mph 1017.4mb 60f 56f
1:54am 21 22 mph 1017.4mb 60f 56f
1:48am 20 23 mph 1017.4mb 60f 56f
1:42am 18 23 mph 1017.3mb 60f 56f
1:36am 20 23 mph 1017.2mb 60f 56f
1:30am 18 23 mph 1017.1mb 60f 56f
1:24am 21 23 mph 1017.1mb 60f 56f
1:18am 21 24 mph 1017mb 60f 56f
1:12am 21 24 mph 1016.9mb 60f 56f
1:06am 23 26 mph 1016.8mb 60f 57f
1:00am 23 26 mph 1016.7mb 60f 57f
12:54am 22 26 mph 1016.6mb 60f 58f
12:48am 22 24 mph 1016.6mb 60f 58f
12:42am 15 18 mph 1016.5mb 60f 58f
12:36am 14 15 mph 1016.4mb 60f 58f
12:30am 13 14 mph 1016.4mb 60f 58f
12:24am 11 13 mph 1016.4mb 60f 58f
12:18am 10 13 mph 1016.4mb 60f 58f
12:12am 10 11 mph 1016.4mb 60f 58f
12:06am 10 10 mph 1016.4mb 60f 58f
12:00am 8 9 mph 1016.5mb 60f 58f
Thu 11/16 11:54pm 8 9 mph 1016.4mb 60f 58f
11:48pm 8 9 mph 1016.4mb 60f 58f
11:42pm 9 10 mph 1016.4mb 60f 58f
11:36pm 9 10 mph 1016.4mb 60f 58f
11:30pm 9 10 mph 1016.4mb 60f 58f
11:24pm 8 9 mph 1016.3mb 60f 58f
11:18pm 9 10 mph 1016.4mb 60f 58f
11:12pm 9 10 mph 1016.3mb 60f 58f
11:06pm 9 10 mph 1016.3mb 60f 59f
11:00pm 9 10 mph 1016.3mb 60f 59f
10:54pm 8 10 mph 1016.2mb 60f 59f
10:48pm 9 10 mph 1016.2mb 60f 59f
10:42pm 9 11 mph 1016.2mb 60f 59f
10:36pm 10 11 mph 1016.2mb 60f 59f
10:30pm 9 11 mph 1016.3mb 60f 59f
10:24pm 9 13 mph 1016.3mb 60f 59f
10:18pm 10 11 mph 1016.4mb 60f 59f
10:12pm 10 11 mph 1016.4mb 60f 59f
10:06pm 10 11 mph 1016.4mb 60f 59f
10:00pm 10 11 mph 1016.4mb 60f 59f
9:54pm 9 10 mph 1016.4mb 60f 59f
9:48pm 9 10 mph 1016.4mb 60f 59f
9:42pm 9 10 mph 1016.4mb 60f 59f
9:36pm 9 10 mph 1016.4mb 60f 59f
9:30pm 8 10 mph 1016.4mb 60f 59f
9:24pm 6 9 mph 1016.4mb 60f 60f
9:18pm 7 11 mph 1016.4mb 60f 60f
9:12pm 8 9 mph 1016.4mb 60f 60f
9:06pm 9 10 mph 1016.4mb 60f 60f
9:00pm 8 9 mph 1016.4mb 60f 60f
8:54pm 8 10 mph 1016.4mb 60f 60f
8:48pm 10 11 mph 1016.3mb 60f 60f
8:42pm 10 14 mph 1016.2mb 60f 60f
8:36pm 11 13 mph 1016.1mb 60f 60f
8:30pm 11 14 mph 1016mb 60f 60f
8:24pm 9 11 mph 1015.9mb 60f 60f
8:18pm 10 11 mph 1015.8mb 60f 60f
8:12pm 10 11 mph 1015.7mb 60f 60f
8:06pm 10 13 mph 1015.6mb 60f 60f
8:00pm 11 13 mph 1015.6mb 60f 60f
7:54pm 11 14 mph 1015.5mb 60f 60f
7:48pm 10 13 mph 1015.5mb 60f 60f
7:42pm 10 13 mph 1015.5mb 60f 60f
7:36pm 11 13 mph 1015.5mb 60f 60f
7:30pm 10 11 mph 1015.4mb 60f 60f
7:24pm 10 11 mph 1015.4mb 60f 60f
7:18pm 10 13 mph 1015.3mb 60f 60f
7:12pm 11 13 mph 1015.3mb 60f 60f
7:06pm 11 13 mph 1015.3mb 60f 60f
7:00pm 10 13 mph 1015.2mb 60f 60f
6:54pm 11 14 mph 1015.2mb 60f 60f
6:48pm 11 13 mph 1015.1mb 60f 60f
6:42pm 10 13 mph 1015.1mb 60f 60f
6:36pm 11 14 mph 1015mb 60f 60f
6:30pm 13 14 mph 1014.9mb 60f 60f
6:24pm 13 15 mph 1014.7mb 60f 60f
6:18pm 14 15 mph 1014.6mb 60f 60f
6:12pm 13 15 mph 1014.5mb 60f 60f
6:06pm 13 15 mph 1014.5mb 60f 60f
6:00pm 13 15 mph 1014.4mb 60f 60f
5:54pm 11 15 mph 1014.4mb 60f 60f
5:48pm 14 15 mph 1014.3mb 60f 60f
5:42pm 14 16 mph 1014.2mb 60f 61f
5:36pm 14 16 mph 1014.1mb 60f 60f
5:30pm 14 15 mph 1014.1mb 60f 60f
5:24pm 13 14 mph 1014mb 60f 60f
5:18pm 11 13 mph 1013.9mb 60f 60f
5:12pm 9 11 mph 1013.8mb 60f 60f
5:06pm 10 11 mph 1013.7mb 60f 59f
5:00pm 9 11 mph 1013.6mb 60f 59f
4:54pm 9 11 mph 1013.5mb 60f 59f
4:48pm 8 10 mph 1013.4mb 60f 59f
4:42pm 9 11 mph 1013.3mb 60f 59f
4:36pm 9 11 mph 1013.3mb 60f 59f
4:30pm 9 11 mph 1013.3mb 60f 59f
4:24pm 9 11 mph 1013.2mb 60f 59f
4:18pm 10 13 mph 1013.1mb 60f 59f
4:12pm 10 13 mph 1013.2mb 60f 59f
4:06pm 11 13 mph 1013.1mb 60f 59f
4:00pm 8 13 mph 1013mb 60f 59f
3:54pm 11 13 mph 1013.1mb 60f 59f
3:48pm 11 13 mph 1013mb 60f 59f
3:42pm 11 13 mph 1012.9mb 60f 59f
3:36pm 9 10 mph 1013mb 60f 59f
3:30pm 9 10 mph 1013.1mb 60f 59f
3:24pm 10 11 mph 1013.1mb 60f 59f
3:18pm 9 11 mph 1013mb 60f 59f
3:12pm 9 10 mph 1012.9mb 60f 59f
3:06pm 9 11 mph 1012.9mb 60f 59f
3:00pm 10 11 mph 1012.9mb 60f 59f
2:54pm 10 11 mph 1013mb 60f 59f
2:48pm 10 11 mph 1013mb 59f 59f
2:42pm 9 11 mph 1013mb 59f 59f
2:36pm 10 13 mph 1013.1mb 59f 58f
2:30pm 11 13 mph 1013.2mb 59f 58f
2:24pm 11 13 mph 1013.2mb 59f 58f
2:18pm 11 13 mph 1013.2mb 59f 58f
2:12pm 11 13 mph 1013.1mb 59f 58f
2:06pm 11 13 mph 1013.1mb 59f 58f
2:00pm 11 14 mph 1013.2mb 59f 58f
1:54pm 10 13 mph 1013.2mb 59f 58f
1:48pm 11 11 mph 1013.2mb 59f 58f
1:42pm 10 13 mph 1013.1mb 59f 58f
1:36pm 10 13 mph 1013.1mb 59f 58f
1:30pm 10 11 mph 1013.2mb 59f 58f
1:24pm 10 11 mph 1013.2mb 59f 58f
1:18pm 9 11 mph 1013.3mb - -
1:12pm 10 11 mph 1013.4mb 59f 58f
1:06pm 8 10 mph 1013.5mb 59f 58f
1:00pm 9 10 mph 1013.7mb 59f 58f
12:54pm 9 11 mph 1013.7mb 59f 58f
12:48pm 10 13 mph 1013.9mb 59f -
12:42pm 10 14 mph 1013.9mb 59f 57f
12:36pm 13 14 mph 1014mb 59f 57f
12:30pm 13 14 mph 1014mb 59f 57f
12:24pm 11 13 mph 1014mb 59f 57f
12:18pm 11 14 mph 1014.2mb 59f 56f
12:12pm 13 14 mph 1014.2mb 59f 56f
12:06pm 13 15 mph 1014.2mb 59f 56f
12:00pm 13 16 mph 1014.3mb 59f 56f
11:54am 15 18 mph 1014.3mb 59f 56f
11:48am 16 18 mph 1014.4mb 59f -
11:42am 14 15 mph 1014.4mb 59f 56f
11:36am 14 15 mph 1014.5mb 59f 56f
11:30am 15 18 mph 1014.8mb 59f 56f
11:24am 16 18 mph 1014.9mb 59f 55f
11:18am 16 18 mph 1015.1mb 59f 55f
11:12am 15 18 mph 1015.2mb 59f 55f
11:06am 17 18 mph 1015.3mb 59f 55f
11:00am 14 17 mph 1015.3mb 59f 55f
10:54am 14 17 mph 1015.4mb 59f 55f
10:48am 16 20 mph - - -
10:42am 16 18 mph 1015.5mb 59f 55f
10:36am 16 20 mph 1015.5mb 59f 55f
10:30am 17 20 mph 1015.5mb 59f 54f
10:24am 14 17 mph 1015.6mb 59f 55f
10:18am 15 18 mph 1015.6mb 59f 55f
10:12am 15 17 mph 1015.6mb 59f 55f
10:06am 15 18 mph 1015.6mb 59f 54f
10:00am 16 17 mph 1015.6mb 59f 54f
9:54am 15 17 mph 1015.5mb 59f 54f
9:48am 16 18 mph 1015.6mb 59f 54f
9:42am 14 17 mph 1015.5mb 59f 54f
9:36am 15 17 mph 1015.4mb 59f 54f
9:30am 14 17 mph 1015.4mb 59f 54f
9:24am 14 16 mph 1015.3mb 59f 54f
9:18am 15 17 mph 1015.3mb 59f 54f
9:12am 15 17 mph 1015.3mb 59f 54f
9:06am 14 16 mph 1015.4mb 59f 54f
9:00am 15 17 mph 1015.4mb 59f 54f
8:54am 15 16 mph 1015.4mb 59f 54f
8:48am 15 17 mph 1015.4mb 59f 54f
8:42am 14 17 mph 1015.3mb 59f 55f
8:36am 16 18 mph 1015.2mb 59f 55f
8:30am 17 20 mph 1015.1mb 59f 55f
8:24am 16 18 mph 1015.1mb 59f 55f
8:18am 16 18 mph 1015.1mb 59f 54f
8:12am 16 18 mph 1015.1mb 59f 55f
8:06am 17 20 mph 1015.1mb 59f 54f
8:00am 18 20 mph 1015.1mb 59f 55f
7:54am 17 20 mph 1015.1mb 59f 55f
7:48am 17 18 mph 1015.1mb 59f 54f
7:42am 17 18 mph 1015mb 59f 54f
7:36am 17 22 mph 1015.1mb 59f 55f
7:30am 21 22 mph 1015.1mb 59f 54f
7:24am 17 21 mph 1015mb 59f 54f
7:18am 18 22 mph 1015mb 59f 54f
7:12am 17 20 mph 1015mb 59f 55f
7:06am 17 21 mph 1014.9mb 59f 55f
7:00am 17 20 mph 1014.9mb 59f 54f
6:54am 17 18 mph 1014.9mb 59f 55f
6:48am 16 18 mph 1014.8mb 59f 55f
6:42am 17 20 mph 1014.7mb 59f 54f
6:36am 17 20 mph 1014.7mb 59f 54f
6:30am 15 15 mph 1014.5mb 59f 54f
6:24am 15 16 mph 1014.5mb 59f 54f
6:18am 15 17 mph 1014.6mb 59f 54f
6:12am 15 17 mph 1014.6mb 59f 54f
6:06am 16 18 mph 1014.6mb 59f 54f
6:00am 16 21 mph 1014.6mb 59f 54f
5:54am 18 21 mph 1014.6mb 59f 54f
5:48am 17 21 mph 1014.6mb 59f 54f
5:42am 16 20 mph 1014.7mb 59f 54f
5:36am 17 22 mph 1014.7mb 59f 54f
5:30am 17 20 mph 1014.7mb 59f 54f
5:24am 18 22 mph 1014.8mb 60f 54f
5:18am 20 22 mph 1014.8mb 60f 54f
5:12am 16 20 mph 1014.7mb 60f 55f
5:06am 16 18 mph 1014.6mb 60f 55f
5:00am 17 18 mph 1014.6mb 60f 55f
4:54am 14 15 mph 1014.6mb 60f 56f
4:48am 13 17 mph 1014.5mb 60f 55f
4:42am 15 16 mph 1014.5mb 60f 55f
4:36am 14 15 mph 1014.4mb 60f 55f
4:30am 14 16 mph 1014.3mb 60f 55f
4:24am 15 17 mph 1014.3mb 60f 55f
4:18am 14 20 mph 1014.4mb 60f 55f
4:12am 18 23 mph 1014.6mb 60f 54f
4:06am 20 24 mph 1014.7mb 60f 54f
4:00am 22 24 mph 1014.6mb 60f 54f
3:54am 21 23 mph 1014.6mb 60f 54f
3:48am 22 24 mph 1014.6mb 60f 55f
3:42am 18 21 mph 1014.5mb 60f 55f
3:36am 16 17 mph 1014.4mb 60f 55f
3:30am 14 15 mph 1014.5mb 60f 55f
3:24am 13 14 mph 1014.5mb 60f 55f
3:18am 13 15 mph 1014.7mb 60f 55f
3:12am 13 14 mph 1014.8mb 60f 55f
3:06am 10 11 mph 1015mb 60f 55f
3:00am 10 14 mph 1014.9mb 60f 55f
2:54am 14 15 mph 1014.8mb 60f 55f
2:48am 14 17 mph 1014.7mb 60f 55f
2:42am 17 18 mph 1014.7mb 60f 55f
2:36am 16 20 mph 1014.7mb 60f 55f
2:30am 15 20 mph 1014.8mb 60f 55f
2:24am 17 20 mph 1014.9mb 60f 55f
2:18am 17 22 mph 1014.9mb 60f 55f
2:12am 21 23 mph 1015mb 60f 54f
2:06am 20 22 mph 1015mb 60f 54f
2:00am 20 22 mph 1014.9mb 59f 55f
1:54am 18 21 mph 1015mb 59f 55f
1:48am 16 18 mph 1015mb 59f 55f
1:42am 16 18 mph 1015mb 59f 55f
1:36am 15 17 mph 1015mb 59f 55f
1:30am 15 16 mph 1015mb 59f 55f
1:24am 14 15 mph 1015mb 59f 55f
1:18am 14 15 mph 1014.9mb 59f 55f
1:12am 13 14 mph 1014.7mb 59f 55f
1:06am 11 13 mph 1014.8mb 59f 55f
1:00am 11 14 mph 1014.9mb 59f 55f
12:54am 11 13 mph 1015.1mb 59f 55f
12:48am 8 9 mph 1014.9mb 59f 55f
12:42am 8 9 mph 1014.9mb 59f 55f
12:36am 9 13 mph 1015.3mb 59f 56f
12:30am 10 13 mph 1015.4mb 59f 56f
12:24am 10 11 mph 1015.3mb 59f 56f
12:18am 9 10 mph 1015.3mb 59f 56f
12:12am 9 10 mph 1015.3mb 59f 56f
12:06am 8 9 mph 1015.4mb 59f 56f
12:00am 8 8 mph 1015.6mb 59f 56f
Wed 11/15 11:54pm 8 9 mph 1015.5mb 59f 56f
11:48pm 8 10 mph 1015.6mb 59f -
11:42pm 8 10 mph 1015.5mb 59f 56f
11:36pm 9 10 mph 1015.7mb 59f 55f
11:30pm 9 11 mph 1015.8mb 59f 55f
11:24pm 10 11 mph 1015.8mb 59f 55f
11:18pm 10 11 mph 1015.9mb 59f 55f
11:12pm 10 13 mph 1016mb 59f 56f
11:06pm 11 14 mph 1016mb 59f 56f
11:00pm 11 14 mph 1016.1mb 59f 56f
10:54pm 11 13 mph 1016.2mb 59f 56f
10:48pm 10 11 mph 1016.2mb 59f 56f
10:42pm 9 10 mph 1016.2mb 59f 57f
10:36pm 8 9 mph 1016.2mb 59f 57f
10:30pm 8 8 mph 1016.3mb 59f 57f
10:24pm 7 10 mph 1016.3mb 59f 57f
10:18pm 8 9 mph 1016.4mb 59f 58f
10:12pm 8 10 mph 1016.4mb 58f 58f
10:06pm 9 10 mph 1016.3mb 58f 58f
10:00pm 8 9 mph 1016.3mb 58f 58f
9:54pm 8 9 mph 1016.4mb 58f 58f
9:48pm 8 9 mph 1016.4mb 58f 58f
9:42pm 7 8 mph 1016.4mb 58f 58f
9:36pm 6 7 mph 1016.3mb 58f 58f
9:30pm 7 8 mph 1016.2mb 58f 58f
9:24pm 8 9 mph 1016.2mb 58f 58f
9:18pm 8 9 mph 1016.3mb 58f 58f
9:12pm 9 10 mph 1016.3mb 58f 58f
9:06pm 9 10 mph 1016.2mb 58f 58f
9:00pm 9 11 mph 1016.2mb 58f 58f
8:54pm 9 10 mph 1016.2mb 58f 58f
8:48pm 10 11 mph 1016.3mb 58f 58f
8:42pm 9 10 mph 1016.3mb 58f 58f
8:36pm 8 10 mph 1016.4mb 58f 58f
8:30pm 10 13 mph 1016.4mb 58f 58f
8:24pm 11 14 mph 1016.4mb 58f 58f
8:18pm 11 14 mph 1016.4mb 58f -
8:12pm 13 14 mph 1016.4mb 58f 58f
8:06pm 11 14 mph 1016.5mb 58f 58f
8:00pm 11 14 mph 1016.6mb 58f 58f
7:54pm 13 14 mph 1016.7mb 58f 58f
7:48pm 11 13 mph 1016.8mb 58f 58f
7:42pm 13 14 mph 1016.8mb 58f 58f
7:36pm 13 15 mph 1016.7mb 58f 58f
7:30pm 13 14 mph 1016.6mb 58f 58f
7:24pm 13 15 mph 1016.5mb 58f 58f
7:18pm 14 15 mph 1016.4mb 58f -
7:12pm 13 15 mph 1016.6mb 58f 58f
7:06pm 14 16 mph 1016.7mb 58f 58f
7:00pm 14 16 mph 1017mb 58f 58f
6:54pm 13 14 mph 1017.1mb 58f 58f
6:48pm 13 15 mph 1017.3mb 58f 58f
6:42pm 11 14 mph 1017.3mb 58f 58f
6:36pm 11 15 mph 1017.3mb 58f 58f
6:30pm 13 14 mph 1017.2mb 58f 59f
6:24pm 14 15 mph 1017.2mb 58f 59f
6:18pm 13 14 mph 1017.1mb 58f 59f
6:12pm 13 14 mph 1017.1mb 58f 59f
6:06pm 11 14 mph 1017.1mb 58f 59f
6:00pm 13 14 mph 1017.1mb 58f 59f
5:54pm 13 15 mph 1017mb 58f 59f
5:48pm 14 16 mph 1017mb 58f 59f
5:42pm 15 17 mph 1016.8mb 58f -
5:36pm 15 18 mph 1016.8mb 58f -
5:30pm 16 18 mph 1016.8mb 58f -
5:24pm 16 18 mph 1016.9mb 58f 59f
5:18pm 16 18 mph 1016.9mb 58f 59f
5:12pm 16 18 mph 1016.9mb 58f 59f
5:06pm 16 18 mph 1016.8mb 58f 59f
5:00pm 16 18 mph 1016.8mb 58f 59f
4:54pm 16 18 mph 1016.7mb 58f 59f
4:48pm 16 20 mph 1016.7mb 58f 59f
4:42pm 17 20 mph 1016.6mb 58f -
4:36pm 17 21 mph 1016.6mb 58f 59f
4:30pm 16 20 mph 1016.6mb 58f 59f
4:24pm 17 20 mph 1016.6mb 58f 58f
4:18pm 16 18 mph 1016.6mb 58f 58f
4:12pm 15 18 mph 1016.7mb 58f 58f
4:06pm 15 17 mph 1016.6mb 58f 58f
4:00pm 15 18 mph 1016.6mb 58f 58f
3:54pm 16 17 mph 1016.6mb 58f 58f
3:48pm 16 18 mph 1016.6mb 58f 58f
3:42pm 16 18 mph 1016.6mb 57f 58f
3:36pm 16 18 mph 1016.6mb 57f 58f
3:30pm 15 17 mph 1016.6mb 57f 58f
3:24pm 15 18 mph 1016.5mb 57f 58f
3:18pm 16 17 mph 1016.6mb 57f 58f
3:12pm 16 20 mph 1016.5mb 57f 58f
3:06pm 15 17 mph 1016.4mb 57f 58f
3:00pm 16 18 mph 1016.3mb 57f 58f
2:54pm 16 18 mph 1016.3mb 57f 58f
2:48pm 15 17 mph 1016.4mb 57f 58f
2:42pm 15 16 mph 1016.4mb 57f 58f
2:36pm 14 15 mph 1016.4mb 57f 58f
2:30pm 14 16 mph 1016.4mb 57f 58f
2:24pm 14 15 mph 1016.5mb 57f 57f
2:18pm 14 17 mph 1016.5mb 57f 58f
2:12pm 15 17 mph 1016.5mb 57f 57f
2:06pm 16 20 mph 1016.5mb 57f 57f
2:00pm 15 17 mph 1016.6mb 56f 57f
1:54pm 14 16 mph 1016.8mb 56f 57f
1:48pm 14 16 mph 1016.9mb 56f 57f
1:42pm 15 17 mph 1017mb 56f 57f
1:36pm 14 17 mph 1017mb 56f 57f
1:30pm 14 18 mph 1017.1mb 56f 57f
1:24pm 15 17 mph 1017.1mb 56f 57f
1:18pm 16 18 mph 1017.1mb 56f 57f
1:12pm 15 17 mph 1017.3mb 56f 57f
1:06pm 14 17 mph 1017.5mb 56f 57f
1:00pm 15 18 mph 1017.6mb 56f 57f
12:54pm 16 18 mph 1017.7mb 56f 57f
12:48pm 16 20 mph 1017.7mb 56f 56f
12:42pm 17 20 mph 1017.7mb 56f 56f
12:36pm 17 18 mph 1017.8mb 56f 56f
12:30pm 16 20 mph 1017.9mb 56f 56f
12:24pm 16 20 mph 1017.9mb 56f 56f
12:18pm 17 20 mph 1018mb 56f 56f
12:12pm 17 20 mph 1018.1mb 56f 56f
12:06pm 16 20 mph 1018.2mb 56f 56f
12:00pm 15 18 mph 1018.3mb 56f 56f
11:54am 16 20 mph 1018.4mb 56f 56f
11:48am 16 17 mph 1018.5mb 56f 56f
11:42am 16 21 mph 1018.7mb 56f 56f
11:36am 16 20 mph 1018.9mb 56f 56f
11:30am 17 18 mph 1019.1mb 56f 56f
11:24am 16 20 mph 1019.3mb 56f 56f
11:18am 16 20 mph 1019.4mb 56f 56f
11:12am 17 20 mph 1019.6mb 56f 56f
11:06am 16 20 mph 1019.8mb 56f 56f
11:00am 18 20 mph 1019.8mb 56f 56f
10:54am 17 21 mph 1019.8mb 56f 56f
10:48am 17 21 mph 1019.9mb 56f 55f
10:42am 18 21 mph 1019.9mb 56f 55f
10:36am 18 21 mph 1019.9mb 56f 55f
10:30am 17 21 mph 1020mb 56f 55f
10:24am 18 21 mph 1020.1mb 56f 55f
10:18am 17 20 mph 1020.1mb 56f 55f
10:12am 18 21 mph 1020.1mb 56f 55f
10:06am 18 22 mph 1020.1mb 56f 55f
10:00am 20 22 mph 1020.1mb 56f 54f
9:54am 18 21 mph 1020.1mb 56f 54f
9:48am 20 22 mph 1020.1mb 56f 54f
9:42am 17 21 mph 1020.1mb 56f 54f
9:36am 17 22 mph 1020.1mb 56f 53f
9:30am 18 22 mph 1020.2mb 56f 53f
9:24am 18 22 mph 1020.1mb 56f 53f
9:18am 18 22 mph 1020.1mb 56f 53f
9:12am 20 23 mph 1020.1mb 56f 52f
9:06am 20 23 mph 1020.2mb 56f 52f
9:00am 21 22 mph 1020.1mb 56f 52f
8:54am 20 23 mph 1020.2mb 56f 52f
8:48am 21 24 mph 1020.1mb 56f 52f
8:42am 21 25 mph 1020.1mb 56f 52f
8:36am 22 25 mph 1020.2mb 56f 52f
8:30am 22 25 mph 1020.3mb 56f 52f
8:24am 22 28 mph 1020.2mb 56f 52f
8:18am 24 28 mph 1020.1mb 56f 52f
8:12am 22 28 mph 1020.1mb 56f 52f
8:06am 23 28 mph 1020.2mb 56f 52f
8:00am 24 29 mph 1020.1mb 56f 51f
7:54am 24 29 mph 1020mb 56f 51f
7:48am 25 28 mph 1020mb 56f 51f
7:42am 24 29 mph 1020.1mb 56f 51f
7:36am 24 28 mph 1020.2mb 56f 52f
7:30am 24 29 mph 1020.1mb 56f 52f
7:24am 23 26 mph 1020.1mb 56f 52f
7:18am 22 26 mph 1020mb 56f 52f
7:12am 21 25 mph 1019.9mb 56f 52f
7:06am 22 26 mph 1020mb 56f 52f
7:00am 23 26 mph 1020.1mb 56f 52f
6:54am 23 25 mph 1020.1mb 56f 51f
6:48am 22 26 mph 1020.1mb - -
6:42am 24 26 mph 1020mb 56f 51f
6:36am 23 26 mph 1020.1mb 56f 51f
6:30am 21 25 mph 1020.1mb 56f 51f
6:24am 22 26 mph 1020mb 56f 51f
6:18am 23 26 mph 1019.9mb 56f 51f
6:12am 23 28 mph 1019.8mb 56f 51f
6:06am 24 28 mph 1019.7mb 56f 51f
6:00am 22 28 mph 1019.8mb 56f 52f
5:54am 24 28 mph 1019.8mb 56f 51f
5:48am 24 26 mph 1019.9mb 56f 51f
5:42am 23 26 mph 1020mb 56f 51f
5:36am 24 28 mph 1020mb 56f 51f
5:30am 25 28 mph 1019.9mb 57f 51f
5:24am 23 28 mph 1019.9mb 57f 52f
5:18am 22 28 mph 1019.8mb 57f 51f
5:12am 24 28 mph 1019.8mb 57f 51f
5:06am 24 28 mph 1019.8mb 57f 51f
5:00am 22 26 mph 1019.8mb 57f 51f
4:54am 24 26 mph 1019.8mb 57f 51f
4:48am 23 26 mph 1019.8mb 57f 52f
4:42am 23 25 mph 1019.7mb 57f 52f
4:36am 22 25 mph 1019.6mb 57f 52f
4:30am 22 25 mph 1019.5mb 57f 52f
4:24am 22 24 mph 1019.5mb 57f 52f
4:18am 21 24 mph 1019.6mb 57f -
4:12am 21 24 mph 1019.6mb 57f 52f
4:06am 21 24 mph 1019.6mb 57f 53f
4:00am 21 25 mph 1019.5mb 57f 53f
3:54am 21 23 mph 1019.5mb 57f 53f
3:48am 21 23 mph 1019.4mb 57f 53f
3:42am 20 23 mph 1019.4mb 57f 53f
3:36am 18 22 mph 1019.5mb 57f 53f
3:30am 20 24 mph 1019.5mb 57f 53f
3:24am 21 24 mph 1019.5mb 57f 52f
3:18am 21 24 mph 1019.5mb 57f -
3:12am 22 23 mph 1019.5mb 57f 53f
3:06am 20 23 mph 1019.6mb 57f 52f
3:00am 21 24 mph 1019.8mb 57f 52f
2:54am 20 23 mph 1019.9mb 57f 52f
2:48am 20 23 mph 1019.9mb 57f 52f
2:42am 21 23 mph 1019.9mb 57f 52f
2:36am 21 24 mph 1020mb 57f 52f
2:30am 22 24 mph 1020mb 57f 52f
2:24am 22 25 mph 1020mb 57f 53f
2:18am 22 28 mph 1020.1mb - -
2:12am 23 28 mph 1019.9mb 57f 53f
2:06am 23 26 mph 1019.9mb 57f 54f
2:00am 24 28 mph 1020mb 57f 54f
1:54am 24 26 mph 1020mb 57f 53f
1:48am 21 24 mph 1020.1mb - -
1:42am 23 28 mph 1020.2mb - -
1:36am 23 26 mph 1020.1mb - -
1:30am 23 28 mph 1019.9mb 57f 53f
1:24am 24 30 mph 1019.7mb 57f 53f
1:18am 24 28 mph 1019.9mb 57f -
1:12am 21 25 mph 1020.2mb 57f 53f
1:06am 22 26 mph 1020.3mb 57f 54f
1:00am 22 28 mph 1020.2mb 57f 53f